Regional Weather Roundup
Issued by NWS Midland/Odessa, TX

Skip options and go directly to product.
Home | Oldest Version | Previous Version | Current Version | All | Text Only | Save Text | Print | Product List | Glossary Off

Skip product version selection by date and time.   

066
ASUS44 KMAF 240210
RWRMAF
MIDLAND AREA WEATHER ROUNDUP
NATIONAL WEATHER SERVICE MIDLAND TX
900 PM CDT TUE SEP 23 2014

...IN SOUTHWEST TEXAS AND SOUTHEAST NEW MEXICO...

CITY           SKY/WX    TMP DP  RH WIND       PRES   REMARKS
ALPINE         MOCLDY    71  56  58 SE6       30.24R
ANDREWS        FAIR      73  64  71 SE5       30.11R
ARTESIA        NOT AVBL
BIG SPRING     CLOUDY    79  64  60 CALM      30.11R
CARLSBAD       PTCLDY    71  70  96 S6        30.08R
DRYDEN           N/A     85  60  42 SE13      30.05R
FORT STOCKTON  PTCLDY    76  59  55 SE9       30.10R
GUAD PASS      MOCLDY    66  60  81 E12       30.25R
HOBBS          MOCLDY    68  64  88 CALM      30.14R
MARFA          MOCLDY    66  55  68 E6        30.21S
MIDLAND AIRPK  CLOUDY    79  61  53 S7        30.09S
MIDLAND INTL   CLOUDY    78  62  57 S9        30.08S
ODESSA         CLOUDY    77  60  55 S8        30.10R
PECOS          CLEAR     73  63  68 SE6       30.06R
PRESIDIO       FAIR      84  53  34 NE8       30.04R
SEMINOLE       DRIZZLE   70  66  89 CALM      30.13R
SNYDER         MOCLDY    73  66  78 SE6       30.10R
WINK           PTCLDY    79  64  60 CALM      30.06R
$$
...OTHER STATIONS IN TEXAS...

CITY           SKY/WX    TMP DP  RH WIND       PRES   REMARKS
ABILENE        PTCLDY    76  60  57 SE7       30.09R
AMARILLO       CLEAR     72  59  63 S13       30.10R
AUSTIN         MOCLDY    73  59  61 E3        30.07R
BROWNSVILLE    LGT RAIN  78  75  90 NE13      29.98R
CORPUS CHRISTI PTCLDY    78  68  71 E9        30.01R
DALLAS FTW     PTCLDY    74  44  34 E7        30.08R
DEL RIO        CLEAR     84  66  54 E8        30.01R
EL PASO        PTCLDY    78  59  51 S8        30.09R
HOUSTON INT    MOCLDY    71  60  68 N5        30.06R
LUBBOCK        MOCLDY    71  61  70 S7        30.11R
SAN ANGELO     MOCLDY    77  64  64 SE8       30.07R
SAN ANTONIO    CLOUDY    79  55  43 E8        30.06R
WACO           PTCLDY    72  52  49 E6        30.08R
WICHITA FALLS  NOT AVBL
$$
...OTHER LOCATIONS IN NEW MEXICO...

CITY           SKY/WX    TMP DP  RH WIND       PRES   REMARKS
ALAMAGORDO     CLEAR     72  64  78 S6        30.12S
ALBUQUERQUE    PTCLDY    76  53  44 S5        30.16R
CANNON AFB     NOT AVBL
CLOVIS           N/A     66  55  68 SW8       30.16R
HOLLOMAN AFB   PTCLDY    75  64  68 S10       30.09S
ROSWELL        CLEAR     71  64  78 S7        30.09S
RUIDOSO        CLEAR     59  57  94 S5        30.31R
SANTA FE       MOCLDY    72  47  40 N5        30.20R
TRUTH OR CONSE PTCLDY    74  63  68 SW5       30.14R
TUCUMCARI      CLEAR     71  59  65 S7        30.07R
$$

USA.gov is the U.S. government's official web portal to all federal, state and local government web resources and services.